MAS7716 WIII-WMKK

Flight info

Callsign MAS7716
Flight time N/A
Altitude 38000
Route DOLTA2D DOLTA A585 PKU/N0481F390 N633 SALAX SALAX1H
Aircraft A388/J-SADE2E3FGHIJ3J4J5M1RWXY/LB1D1

Departure

Time 2026-05-06 13:36
Airport Soekarno-Hatta International Airport (WIII)

Arrival

Time N/A
Airport Kuala Lumpur International Airport (WMKK)
Time Latitude Longitude Altitude Speed Heading
2026-05-06 11:51 -6.11769 106.65688 43 ft 0 kts 68°
2026-05-06 13:04 -6.11768 106.65691 43 ft 0 kts 68°
2026-05-06 13:23 -6.11768 106.65690 43 ft 2 kts 68°
2026-05-06 13:23 -6.11777 106.65666 43 ft 4 kts 68°
2026-05-06 13:23 -6.11786 106.65647 39 ft 4 kts 52°
2026-05-06 13:23 -6.11803 106.65637 39 ft 4 kts 341°
2026-05-06 13:24 -6.11827 106.65646 38 ft 4 kts 338°
2026-05-06 13:24 -6.11838 106.65651 40 ft 0 kts 338°
2026-05-06 13:30 -6.11827 106.65647 38 ft 5 kts 339°
2026-05-06 13:30 -6.11778 106.65628 40 ft 10 kts 337°
2026-05-06 13:30 -6.11700 106.65594 43 ft 14 kts 337°
2026-05-06 13:30 -6.11636 106.65539 43 ft 6 kts 259°
2026-05-06 13:31 -6.11660 106.65482 43 ft 12 kts 250°
2026-05-06 13:31 -6.11694 106.65387 44 ft 17 kts 248°
2026-05-06 13:31 -6.11744 106.65267 44 ft 21 kts 247°
2026-05-06 13:31 -6.11800 106.65126 44 ft 23 kts 249°
2026-05-06 13:32 -6.11862 106.64967 44 ft 25 kts 248°
2026-05-06 13:32 -6.11930 106.64799 44 ft 27 kts 248°
2026-05-06 13:32 -6.12003 106.64620 44 ft 28 kts 248°
2026-05-06 13:32 -6.12077 106.64432 44 ft 29 kts 248°
2026-05-06 13:33 -6.12154 106.64240 44 ft 30 kts 248°
2026-05-06 13:33 -6.12232 106.64043 44 ft 27 kts 248°
2026-05-06 13:33 -6.12247 106.63935 45 ft 15 kts 298°
2026-05-06 13:33 -6.12234 106.63919 45 ft 0 kts 320°
2026-05-06 13:34 -6.12232 106.63917 45 ft 2 kts 322°
2026-05-06 13:34 -6.12212 106.63907 46 ft 5 kts 336°
2026-05-06 13:34 -6.12178 106.63906 46 ft 7 kts
2026-05-06 13:34 -6.12117 106.63910 46 ft 10 kts 13°
2026-05-06 13:35 -6.12070 106.63963 45 ft 12 kts 64°
2026-05-06 13:35 -6.11974 106.64200 45 ft 73 kts 68°
2026-05-06 13:35 -6.11686 106.64921 47 ft 142 kts 68°
2026-05-06 13:35 -6.11296 106.65917 365 ft 156 kts 69°
2026-05-06 13:36 -6.10852 106.66919 845 ft 161 kts 48°
2026-05-06 13:36 -6.09909 106.67540 1308 ft 163 kts 31°
2026-05-06 13:36 -6.08948 106.68166 1845 ft 169 kts 37°
2026-05-06 13:36 -6.07971 106.68894 2126 ft 184 kts 38°
2026-05-06 13:37 -6.06879 106.69698 2268 ft 204 kts 37°
2026-05-06 13:37 -6.05643 106.70567 2572 ft 226 kts 36°
2026-05-06 13:37 -6.04263 106.71510 3018 ft 251 kts 35°
2026-05-06 13:37 -6.02766 106.72517 3652 ft 263 kts 35°
2026-05-06 13:38 -6.01234 106.73542 4504 ft 267 kts 36°
2026-05-06 13:38 -5.99606 106.74472 4876 ft 272 kts 20°
2026-05-06 13:38 -5.97705 106.74636 5400 ft 281 kts 352°
2026-05-06 13:38 -5.95922 106.73895 6329 ft 286 kts 326°
2026-05-06 13:39 -5.94416 106.72562 7097 ft 291 kts 317°
2026-05-06 13:39 -5.92994 106.71095 7905 ft 295 kts 315°
2026-05-06 13:39 -5.91562 106.69602 8712 ft 298 kts 316°
2026-05-06 13:39 -5.90090 106.68102 9516 ft 302 kts 316°
2026-05-06 13:40 -5.88588 106.66607 10216 ft 307 kts 317°
2026-05-06 13:40 -5.87011 106.65058 10471 ft 328 kts 317°
2026-05-06 13:40 -5.85342 106.63429 10679 ft 349 kts 317°
2026-05-06 13:40 -5.83569 106.61699 11130 ft 359 kts 317°
2026-05-06 13:41 -5.81768 106.59941 11764 ft 363 kts 317°
2026-05-06 13:41 -5.79942 106.58157 12422 ft 367 kts 317°
2026-05-06 13:41 -5.78109 106.56367 13055 ft 371 kts 316°
2026-05-06 13:41 -5.76246 106.54548 13728 ft 375 kts 316°
2026-05-06 13:42 -5.74361 106.52706 14325 ft 378 kts 316°
2026-05-06 13:42 -5.72463 106.50853 14953 ft 380 kts 316°
2026-05-06 13:42 -5.70563 106.48998 15562 ft 383 kts 316°
2026-05-06 13:42 -5.68647 106.47128 16172 ft 386 kts 316°
2026-05-06 13:43 -5.66706 106.45234 16766 ft 389 kts 316°
2026-05-06 13:43 -5.64762 106.43336 17369 ft 392 kts 316°
2026-05-06 13:43 -5.62802 106.41424 17950 ft 395 kts 316°
2026-05-06 13:43 -5.60821 106.39490 18472 ft 398 kts 316°
2026-05-06 13:44 -5.58853 106.37570 18930 ft 401 kts 316°
2026-05-06 13:44 -5.56819 106.35586 19412 ft 404 kts 317°
2026-05-06 13:44 -5.54824 106.33640 19865 ft 407 kts 317°
2026-05-06 13:44 -5.52789 106.31655 20334 ft 410 kts 317°
2026-05-06 13:45 -5.50736 106.29653 20776 ft 412 kts 317°
2026-05-06 13:45 -5.46584 106.25604 21655 ft 419 kts 317°
2026-05-06 13:45 -5.44490 106.23563 22077 ft 421 kts 317°
2026-05-06 13:46 -5.42380 106.21506 22509 ft 424 kts 317°
2026-05-06 13:46 -5.40255 106.19435 22808 ft 428 kts 317°
2026-05-06 13:46 -5.38114 106.17349 22871 ft 429 kts 317°
2026-05-06 13:46 -5.35963 106.15252 23045 ft 430 kts 317°
2026-05-06 13:47 -5.33819 106.13163 23453 ft 432 kts 317°
2026-05-06 13:47 -5.31667 106.11066 23812 ft 434 kts 317°
2026-05-06 13:47 -5.29507 106.08961 24162 ft 436 kts 317°
2026-05-06 13:47 -5.27321 106.06832 24511 ft 438 kts 317°
2026-05-06 13:48 -5.25130 106.04698 24855 ft 441 kts 317°
2026-05-06 13:48 -5.22924 106.02550 25205 ft 443 kts 317°
2026-05-06 13:48 -5.20702 106.00386 25550 ft 445 kts 317°
2026-05-06 13:48 -5.18486 105.98228 25893 ft 448 kts 317°
2026-05-06 13:49 -5.16234 105.96036 26256 ft 450 kts 317°
2026-05-06 13:49 -5.13955 105.93863 26592 ft 452 kts 320°
2026-05-06 13:49 -5.11459 105.91927 26954 ft 453 kts 327°
2026-05-06 13:49 -5.08756 105.90291 27313 ft 455 kts 332°
2026-05-06 13:50 -5.05962 105.88724 27446 ft 464 kts 332°
2026-05-06 13:50 -5.03126 105.87113 27614 ft 472 kts 332°
2026-05-06 13:50 -5.00281 105.85487 28383 ft 465 kts 332°
2026-05-06 13:50 -4.97474 105.83884 28956 ft 465 kts 332°
2026-05-06 13:51 -4.94644 105.82270 29346 ft 470 kts 332°
2026-05-06 13:51 -4.91830 105.80667 29783 ft 473 kts 332°
2026-05-06 13:51 -4.88956 105.79030 30189 ft 476 kts 332°
2026-05-06 13:51 -4.86068 105.77385 30640 ft 478 kts 332°
2026-05-06 13:52 -4.83166 105.75733 31067 ft 481 kts 332°
2026-05-06 13:52 -4.80251 105.74073 31525 ft 483 kts 332°
2026-05-06 13:52 -4.77314 105.72401 32001 ft 484 kts 332°
2026-05-06 13:52 -4.74379 105.70731 32487 ft 486 kts 332°
2026-05-06 13:53 -4.71438 105.69057 32989 ft 486 kts 332°
2026-05-06 13:53 -4.68534 105.67404 33595 ft 484 kts 332°
2026-05-06 13:53 -4.65570 105.65717 34184 ft 482 kts 332°
2026-05-06 13:53 -4.62701 105.64084 34749 ft 479 kts 331°
2026-05-06 13:54 -4.59772 105.62418 35344 ft 476 kts 331°
2026-05-06 13:54 -4.56938 105.60806 35913 ft 472 kts 331°
2026-05-06 13:54 -4.54092 105.59186 36516 ft 468 kts 331°
2026-05-06 13:54 -4.51271 105.57582 37140 ft 463 kts 331°
2026-05-06 13:55 -4.48476 105.55993 37724 ft 460 kts 331°
2026-05-06 13:55 -4.45673 105.54398 37873 ft 467 kts 331°
2026-05-06 13:55 -4.39902 105.51118 37874 ft 486 kts 330°
2026-05-06 13:56 -4.33890 105.47700 37873 ft 507 kts 330°
2026-05-06 13:56 -4.27726 105.44196 37874 ft 508 kts 330°
2026-05-06 13:57 -4.21563 105.40694 37875 ft 510 kts 330°
2026-05-06 13:57 -4.15387 105.37185 37872 ft 510 kts 330°
2026-05-06 13:58 -4.09213 105.33677 37871 ft 510 kts 330°
2026-05-06 13:58 -4.03045 105.30174 37873 ft 510 kts 330°
2026-05-06 13:59 -3.96863 105.26663 37874 ft 511 kts 330°
2026-05-06 13:59 -3.90677 105.23152 37872 ft 511 kts 331°
2026-05-06 14:00 -3.84512 105.19679 37873 ft 515 kts 331°
2026-05-06 14:00 -3.78204 105.16132 37868 ft 517 kts 331°
2026-05-06 14:01 -3.71971 105.12624 37871 ft 518 kts 331°
2026-05-06 14:01 -3.65688 105.09087 37869 ft 518 kts 331°
2026-05-06 14:02 -3.59397 105.05547 37871 ft 518 kts 331°
2026-05-06 14:02 -3.53108 105.02008 37870 ft 519 kts 331°
2026-05-06 14:03 -3.46794 104.98456 37868 ft 519 kts 331°
2026-05-06 14:03 -3.40501 104.94916 37870 ft 519 kts 331°
2026-05-06 14:04 -3.34232 104.91390 37872 ft 520 kts 331°
2026-05-06 14:04 -3.27924 104.87842 37871 ft 520 kts 331°
2026-05-06 14:05 -3.21628 104.84302 37867 ft 519 kts 331°
2026-05-06 14:05 -3.15330 104.80761 37863 ft 519 kts 331°
2026-05-06 14:06 -3.09037 104.77224 37861 ft 518 kts 331°
2026-05-06 14:06 -3.02755 104.73693 37862 ft 518 kts 332°
2026-05-06 14:07 -2.96473 104.70163 37856 ft 517 kts 332°
2026-05-06 14:07 -2.90234 104.66562 37855 ft 517 kts 328°
2026-05-06 14:08 -2.84566 104.62123 37857 ft 519 kts 318°
2026-05-06 14:08 -2.79407 104.57070 37859 ft 519 kts 317°
2026-05-06 14:09 -2.74219 104.52017 37874 ft 519 kts 317°
2026-05-06 14:09 -2.69035 104.46968 37873 ft 520 kts 317°
2026-05-06 14:10 -2.63880 104.41944 37871 ft 521 kts 317°
2026-05-06 14:10 -2.58698 104.36892 37870 ft 520 kts 317°
2026-05-06 14:11 -2.54378 104.32681 37870 ft 521 kts 317°
2026-05-06 14:11 -2.49192 104.27628 37873 ft 520 kts 317°
2026-05-06 14:12 -2.43968 104.22537 37874 ft 520 kts 317°
2026-05-06 14:12 -2.38811 104.17512 37873 ft 521 kts 317°
2026-05-06 14:13 -2.33618 104.12453 37876 ft 521 kts 317°
2026-05-06 14:13 -2.28419 104.07388 37877 ft 521 kts 317°
2026-05-06 14:14 -2.23226 104.02330 37876 ft 522 kts 317°
2026-05-06 14:14 -2.18022 103.97262 37878 ft 523 kts 317°
2026-05-06 14:15 -2.12808 103.92184 37876 ft 523 kts 316°
2026-05-06 14:15 -2.07589 103.87102 37875 ft 524 kts 316°
2026-05-06 14:16 -2.02362 103.82013 37880 ft 524 kts 316°
2026-05-06 14:16 -1.97168 103.76957 37883 ft 525 kts 316°
2026-05-06 14:17 -1.91929 103.71857 37880 ft 525 kts 316°
2026-05-06 14:17 -1.86691 103.66758 37881 ft 525 kts 316°
2026-05-06 14:18 -1.81458 103.61664 37877 ft 525 kts 316°
2026-05-06 14:18 -1.76215 103.56562 37880 ft 526 kts 316°
2026-05-06 14:19 -1.70971 103.51460 37879 ft 526 kts 316°
2026-05-06 14:19 -1.65718 103.46348 37876 ft 526 kts 316°
2026-05-06 14:20 -1.60500 103.41271 37881 ft 526 kts 316°
2026-05-06 14:20 -1.55252 103.36165 37882 ft 527 kts 316°
2026-05-06 14:21 -1.49994 103.31050 37883 ft 527 kts 316°
2026-05-06 14:21 -1.44744 103.25944 37882 ft 526 kts 316°
2026-05-06 14:22 -1.39490 103.20833 37882 ft 526 kts 316°
2026-05-06 14:22 -1.34241 103.15727 37882 ft 526 kts 316°
2026-05-06 14:23 -1.29041 103.10670 37883 ft 526 kts 316°
2026-05-06 14:23 -1.23787 103.05560 37889 ft 526 kts 316°
2026-05-06 14:24 -1.18551 103.00469 37886 ft 525 kts 316°
2026-05-06 14:24 -1.13306 102.95368 37890 ft 525 kts 316°
2026-05-06 14:25 -1.08067 102.90275 37892 ft 525 kts 316°
2026-05-06 14:25 -1.02815 102.85174 37887 ft 525 kts 317°
2026-05-06 14:26 -0.97599 102.80115 37889 ft 525 kts 317°
2026-05-06 14:26 -0.92359 102.75032 37888 ft 524 kts 317°
2026-05-06 14:27 -0.87112 102.69941 37882 ft 525 kts 317°
2026-05-06 14:27 -0.81878 102.64863 37882 ft 524 kts 317°
2026-05-06 14:28 -0.76680 102.59820 37880 ft 525 kts 317°
2026-05-06 14:28 -0.71437 102.54735 37876 ft 525 kts 317°
2026-05-06 14:29 -0.66197 102.49652 37874 ft 525 kts 317°
2026-05-06 14:29 -0.60954 102.44566 37873 ft 525 kts 317°
2026-05-06 14:30 -0.55700 102.39470 37868 ft 525 kts 316°
2026-05-06 14:30 -0.50454 102.34381 37867 ft 525 kts 317°
2026-05-06 14:31 -0.45208 102.29292 37862 ft 525 kts 317°
2026-05-06 14:31 -0.39967 102.24208 37861 ft 526 kts 317°
2026-05-06 14:32 -0.34753 102.19152 37858 ft 525 kts 317°
2026-05-06 14:32 -0.29515 102.14071 37856 ft 525 kts 317°
2026-05-06 14:33 -0.24266 102.08981 37852 ft 525 kts 317°
2026-05-06 14:33 -0.19019 102.03892 37854 ft 525 kts 316°
2026-05-06 14:34 -0.13776 101.98807 37851 ft 525 kts 316°
2026-05-06 14:34 -0.08532 101.93721 37848 ft 525 kts 316°
2026-05-06 14:35 -0.03291 101.88638 37847 ft 525 kts 316°
2026-05-06 14:35 0.01955 101.83550 37847 ft 525 kts 316°
2026-05-06 14:36 0.07205 101.78458 37843 ft 526 kts 316°
2026-05-06 14:36 0.12458 101.73363 37842 ft 526 kts 316°
2026-05-06 14:37 0.17703 101.68277 37836 ft 526 kts 316°
2026-05-06 14:37 0.22955 101.63183 37833 ft 526 kts 316°
2026-05-06 14:38 0.28172 101.58124 37828 ft 526 kts 316°
2026-05-06 14:38 0.33427 101.53027 37828 ft 526 kts 316°
2026-05-06 14:39 0.38979 101.48221 37826 ft 525 kts 328°
2026-05-06 14:39 0.45645 101.45375 37830 ft 522 kts 348°
2026-05-06 14:40 0.52790 101.44847 37830 ft 514 kts
2026-05-06 14:40 0.56348 101.45111 37830 ft 499 kts
2026-05-06 14:40 0.59781 101.45346 37830 ft 493 kts
2026-05-06 14:41 0.66588 101.45804 37830 ft 495 kts
2026-05-06 14:41 0.73466 101.46271 37832 ft 495 kts
2026-05-06 14:42 0.80348 101.46741 37838 ft 494 kts
2026-05-06 14:42 0.83773 101.46975 37706 ft 490 kts
2026-05-06 14:42 0.87158 101.47205 37445 ft 487 kts
2026-05-06 14:43 0.90544 101.47437 37196 ft 488 kts
2026-05-06 14:43 0.93937 101.47669 36703 ft 488 kts
2026-05-06 14:43 0.97343 101.47902 35848 ft 492 kts
2026-05-06 14:43 1.00777 101.48137 34777 ft 499 kts
2026-05-06 14:44 1.04272 101.48376 33627 ft 507 kts
2026-05-06 14:44 1.07757 101.48614 32669 ft 507 kts
2026-05-06 14:44 1.11262 101.48852 32001 ft 502 kts
2026-05-06 14:45 1.18070 101.49314 31340 ft 477 kts
2026-05-06 14:45 1.21362 101.49538 30702 ft 474 kts
2026-05-06 14:45 1.24656 101.49765 29975 ft 474 kts
2026-05-06 14:45 1.27919 101.49988 29304 ft 469 kts
2026-05-06 14:46 1.31203 101.50214 28185 ft 474 kts
2026-05-06 14:46 1.34500 101.50440 27287 ft 475 kts
2026-05-06 14:46 1.37774 101.50663 26620 ft 469 kts
2026-05-06 14:46 1.41030 101.50885 25949 ft 464 kts
2026-05-06 14:47 1.44237 101.51104 25278 ft 460 kts
2026-05-06 14:47 1.47413 101.51320 24621 ft 455 kts
2026-05-06 14:47 1.50559 101.51535 24114 ft 448 kts
2026-05-06 14:47 1.53620 101.51743 23911 ft 433 kts
2026-05-06 14:48 1.56582 101.51944 23852 ft 421 kts
2026-05-06 14:48 1.59504 101.52144 23854 ft 422 kts
2026-05-06 14:48 1.62446 101.52348 23853 ft 424 kts
2026-05-06 14:48 1.65378 101.52549 23845 ft 423 kts
2026-05-06 14:49 1.68281 101.52748 23439 ft 423 kts
2026-05-06 14:49 1.71231 101.52950 22545 ft 428 kts
2026-05-06 14:49 1.74225 101.53156 21539 ft 433 kts
2026-05-06 14:49 1.77213 101.53360 20807 ft 430 kts
2026-05-06 14:50 1.80180 101.53562 20146 ft 425 kts
2026-05-06 14:50 1.83108 101.53761 19507 ft 420 kts
2026-05-06 14:50 1.86021 101.53960 18871 ft 416 kts
2026-05-06 14:50 1.88900 101.54157 18235 ft 412 kts
2026-05-06 14:51 1.91683 101.54676 17512 ft 405 kts 20°
2026-05-06 14:51 1.94190 101.55891 16830 ft 398 kts 35°
2026-05-06 14:51 1.96261 101.57691 16151 ft 392 kts 50°
2026-05-06 14:51 1.97789 101.59925 15479 ft 386 kts 64°
2026-05-06 14:52 1.98825 101.62382 14786 ft 382 kts 68°
2026-05-06 14:52 1.99808 101.64788 14369 ft 374 kts 68°
2026-05-06 14:52 2.00782 101.67143 14203 ft 357 kts 68°
2026-05-06 14:52 2.01713 101.69386 14072 ft 342 kts 68°
2026-05-06 14:53 2.02605 101.71535 13953 ft 328 kts 68°
2026-05-06 14:53 2.03462 101.73600 13884 ft 313 kts 68°
2026-05-06 14:53 2.04280 101.75573 13874 ft 304 kts 68°
2026-05-06 14:53 2.05109 101.77577 13880 ft 329 kts 68°
2026-05-06 14:54 2.06017 101.79773 13877 ft 350 kts 68°
2026-05-06 14:54 2.06954 101.82036 13879 ft 356 kts 68°
2026-05-06 14:54 2.07903 101.84327 13851 ft 352 kts 68°
2026-05-06 14:54 2.08826 101.86555 13769 ft 342 kts 68°
2026-05-06 14:55 2.09678 101.88718 13654 ft 328 kts 74°
2026-05-06 14:55 2.09982 101.90928 13539 ft 314 kts 91°
2026-05-06 14:55 2.09653 101.93013 13429 ft 302 kts 107°
2026-05-06 14:55 2.09033 101.94962 13339 ft 290 kts 107°
2026-05-06 14:56 2.08452 101.96875 13118 ft 283 kts 106°
2026-05-06 14:56 2.08017 101.98809 12706 ft 284 kts 97°
2026-05-06 14:56 2.07930 102.00111 12467 ft 283 kts 91°
2026-05-06 14:56 2.07903 102.02075 12122 ft 282 kts 91°
2026-05-06 14:57 2.07850 102.04037 11776 ft 281 kts 92°
2026-05-06 14:57 2.07821 102.05981 11491 ft 277 kts 85°
2026-05-06 14:57 2.08405 102.07763 11405 ft 267 kts 58°
2026-05-06 14:57 2.09687 102.09050 11313 ft 259 kts 33°
2026-05-06 14:58 2.11368 102.09672 10997 ft 262 kts
2026-05-06 14:58 2.13180 102.09500 10671 ft 264 kts 341°
2026-05-06 14:58 2.14802 102.08654 10379 ft 263 kts 330°
2026-05-06 14:58 2.16394 102.07738 10104 ft 263 kts 331°
2026-05-06 14:59 2.17988 102.06849 9846 ft 262 kts 331°
2026-05-06 14:59 2.19579 102.05969 9569 ft 261 kts 331°
2026-05-06 14:59 2.21160 102.05094 9302 ft 259 kts 331°
2026-05-06 14:59 2.22729 102.04223 9028 ft 257 kts 331°
2026-05-06 15:00 2.24290 102.03357 8753 ft 256 kts 331°
2026-05-06 15:00 2.25842 102.02494 8492 ft 254 kts 331°
2026-05-06 15:00 2.27391 102.01633 8202 ft 254 kts 331°
2026-05-06 15:00 2.28930 102.00777 7950 ft 252 kts 331°
2026-05-06 15:01 2.30458 101.99928 7693 ft 251 kts 331°
2026-05-06 15:01 2.31983 101.99080 7439 ft 249 kts 331°
2026-05-06 15:01 2.33480 101.98247 7190 ft 248 kts 331°
2026-05-06 15:01 2.35004 101.97400 6949 ft 247 kts 331°
2026-05-06 15:02 2.36486 101.96576 6700 ft 246 kts 331°
2026-05-06 15:02 2.37978 101.95746 6458 ft 245 kts 331°
2026-05-06 15:02 2.39460 101.94923 6217 ft 243 kts 331°